Weather History for KAQV - October, 2013

Change the Weather History Date:

Friday, October 11, 2013

  Actual Average (KPOE) Record (KPOE)
Temperature  
Mean Temperature 72 °F -  
Max Temperature 84 °F 76 °F 88 °F (2010)
Min Temperature 59 °F 57 °F 42 °F (2000)
Cooling Degree Days 6    
Growing Degree Days 22 (Base 50)    
Moisture  
Dew Point 63 °F    
Average Humidity 82    
Maximum Humidity 97    
Minimum Humidity 46    
Precipitation  
Precipitation 0.01 in - - ()
Sea Level Pressure  
Sea Level Pressure 29.96 in    
Wind  
Wind Speed 1 mph (SSE)    
Max Wind Speed 6 mph    
Max Gust Speed -    
Visibility 7 miles    
Events      
Averages and records for this station are not official NWS values.
T = Trace of Precipitation, MM = Missing Value Source: NWS Daily Summary

Daily Weather History Graph

Daily Weather History Graph

Search for Another Location

Airport or City:

Trip Planner

Search our weather history database for the weather conditions in past years. The results will help you decide how hot, cold, wet, or windy it might be!

Date:

Astronomy

Oct. 11, 2013 Rise Set
Actual Time 7:13 AM CDT 6:45 PM CDT
Civil Twilight 6:49 AM CDT 7:09 PM CDT
Nautical Twilight 6:20 AM CDT 7:38 PM CDT
Astronomical Twilight 5:52 AM CDT 8:06 PM CDT
Moon 1:44 PM CDT (10/11) No Moon Set
Length of Visible Light 12h 20m
Length of Day
11h 31m
Waxing Crescent, 47% of the Moon is Illuminated
Oct 11
Waxing Crescent
Oct 11
First Quarter
Oct 18
Full
Oct 26
Last Quarter
Nov 3
New

Hourly Weather History & Observations

Time (CDT) Temp. Heat Index Dew Point Humidity Pressure Visibility Wind Dir Wind Speed Gust Speed Precip Events Conditions
12:56 AM 59.0 °F - 57.9 °F 96% 29.98 in 5.0 mi Calm Calm - N/A   Clear
1:56 AM 59.0 °F - 57.0 °F 93% 29.97 in 5.0 mi Calm Calm - N/A   Clear
2:56 AM 59.0 °F - 57.0 °F 93% 29.95 in 3.0 mi Calm Calm - N/A   Clear
3:56 AM 64.0 °F - 62.1 °F 93% 29.93 in 7.0 mi Variable 3.5 mph - 0.01 in   Clear
4:56 AM 64.0 °F - 62.1 °F 93% 29.93 in 7.0 mi Calm Calm - N/A   Clear
5:56 AM 61.0 °F - 60.1 °F 97% 29.95 in 2.5 mi Calm Calm - N/A   Clear
6:04 AM 60.8 °F - 59.0 °F 94% 29.96 in 1.8 mi Calm Calm - N/A   Partly Cloudy
6:21 AM 60.8 °F - 57.2 °F 88% 29.97 in 2.5 mi Calm Calm - N/A   Partly Cloudy
6:56 AM 59.0 °F - 57.9 °F 96% 29.99 in 1.8 mi Calm Calm - N/A   Clear
7:02 AM 59.0 °F - 57.2 °F 94% 29.99 in 3.0 mi Calm Calm - N/A   Clear
7:16 AM 59.0 °F - 57.2 °F 94% 29.99 in 2.0 mi Calm Calm - N/A   Clear
7:20 AM - - - N/A% - 1.8 mi Calm Calm - N/A   Unknown
7:56 AM 60.1 °F - 59.0 °F 96% 30.00 in 2.5 mi Calm Calm - N/A   Clear
8:28 AM 64.4 °F - 62.6 °F 94% 30.01 in 4.0 mi Calm Calm - N/A   Clear
8:56 AM 66.0 °F - 63.0 °F 90% 30.01 in 8.0 mi ESE 3.5 mph - N/A   Clear
9:56 AM 73.0 °F - 66.0 °F 79% 30.01 in 10.0 mi Calm Calm - N/A   Clear
10:56 AM 77.0 °F - 66.9 °F 71% 30.01 in 10.0 mi Variable 3.5 mph - N/A   Clear
11:56 AM 80.1 °F 82.1 °F 66.0 °F 62% 30.00 in 10.0 mi Variable 5.8 mph - N/A   Clear
12:56 PM 81.0 °F 83.0 °F 66.0 °F 60% 29.98 in 10.0 mi South 4.6 mph - N/A   Scattered Clouds
1:56 PM 84.9 °F 86.1 °F 64.0 °F 49% 29.96 in 10.0 mi Variable 5.8 mph - N/A   Partly Cloudy
2:56 PM 84.9 °F 85.4 °F 62.1 °F 46% 29.94 in 10.0 mi South 5.8 mph - N/A   Partly Cloudy
3:56 PM 84.9 °F 85.9 °F 63.0 °F 48% 29.93 in 10.0 mi Variable 3.5 mph - N/A   Partly Cloudy
4:56 PM 84.9 °F 86.1 °F 64.0 °F 49% 29.92 in 10.0 mi Variable 5.8 mph - N/A   Clear
5:56 PM 82.9 °F 84.6 °F 64.9 °F 54% 29.92 in 10.0 mi Calm Calm - N/A   Clear
6:56 PM 73.9 °F - 68.0 °F 82% 29.93 in 10.0 mi Calm Calm - N/A   Clear
7:56 PM 71.1 °F - 68.0 °F 90% 29.94 in 10.0 mi Calm Calm - N/A   Clear
8:56 PM 69.1 °F - 66.9 °F 93% 29.95 in 9.0 mi Calm Calm - N/A   Clear
9:56 PM 69.1 °F - 66.9 °F 93% 29.95 in 9.0 mi South 3.5 mph - N/A   Clear
10:56 PM 70.0 °F - 66.9 °F 90% 29.95 in 10.0 mi Calm Calm - N/A   Clear
11:56 PM 69.1 °F - 66.9 °F 93% 29.95 in 9.0 mi Calm Calm - N/A   Clear